Terminal Aerodrome Forecast
Issued by NWS Houston/Galveston TX

Home | Current Version | Previous Version | Text Only | Print | Product List | Glossary On
Versions: 1 2 3 4 5 6 7 8 9 10 11 12 13 14 15 16 17 18 19 20 21 22 23 24 25 26
000
FTUS44 KHGX 190524
TAFHOU
TAF
KHOU 190524Z 1906/2006 VRB02KT P6SM FEW050 SCT250
     FM191500 11006KT P6SM SCT035 BKN250
     FM192100 14009KT P6SM SCT045 BKN250
     FM200200 16005KT P6SM BKN250=

USA.gov is the U.S. government's official web portal to all federal, state and local government web resources and services.